EDT,Max TemperatureF,Mean TemperatureF,Min TemperatureF,Max Dew PointF,MeanDew PointF,Min DewpointF,Max Humidity, Mean Humidity, Min Humidity, Max Sea Level PressureIn, Mean Sea Level PressureIn, Min Sea Level PressureIn, Max VisibilityMiles, Mean VisibilityMiles, Min VisibilityMiles, Max Wind SpeedMPH, Mean Wind SpeedMPH, Max Gust SpeedMPH,PrecipitationIn, CloudCover, Events, WindDirDegrees
2013-7-1,82,76,71,75,73,72,100,97,79,30.03,29.92,29.84,10,8,2,12,5,,0.32,4,Rain,164
2013-7-2,84,78,71,79,73,72,100,98,74,30.12,30.05,30.00,10,8,0,16,2,26,0.01,3,Rain-Thunderstorm,163
2013-7-3,86,78,71,77,74,72,100,94,70,30.15,30.11,30.09,10,8,1,23,2,,0.00,2,Rain,122
2013-7-4,86,78,69,75,74,70,100,94,66,30.19,30.15,30.11,10,7,0,20,4,,0.14,2,Rain-Thunderstorm,124
2013-7-5,87,78,68,77,72,68,100,90,62,30.18,30.15,30.11,10,6,0,21,2,28,0.00,1,Fog,111
2013-7-6,87,79,71,75,73,72,100,87,58,30.16,30.13,30.08,10,9,4,18,3,,0.00,1,,118
2013-7-7,87,78,69,75,73,70,100,90,58,30.17,30.14,30.10,10,8,0,12,2,,0.00,1,Fog,106
2013-7-8,87,78,68,77,72,68,100,90,58,30.20,30.16,30.11,10,8,3,14,2,,0.00,1,,101
2013-7-9,89,78,68,75,72,68,100,86,52,30.20,30.15,30.09,10,8,2,10,1,15,0.00,2,,114
2013-7-10,91,78,66,75,71,66,100,87,52,30.13,30.07,29.98,10,9,5,8,1,,0.00,2,Rain-Thunderstorm,134
2013-7-11,91,81,71,75,73,72,100,91,52,30.04,29.98,29.89,10,8,2,14,3,,0.48,2,Rain,160
2013-7-12,86,78,71,75,74,72,100,94,66,29.97,29.93,29.90,10,9,6,12,3,,0.00,2,Rain,186
2013-7-13,82,75,68,75,72,68,100,98,74,30.03,29.96,29.92,10,7,1,8,2,,0.00,2,Rain,175
2013-7-14,84,75,66,75,71,66,100,93,70,30.14,30.07,30.00,10,7,0,15,1,,0.00,3,Fog-Rain,124
2013-7-15,80,74,68,77,74,68,100,97,84,30.19,30.15,30.11,10,8,2,12,2,,0.00,3,Rain-Thunderstorm,50
2013-7-16,86,78,71,77,74,72,100,91,66,30.22,30.19,30.16,10,8,1,16,3,,0.00,1,,81
2013-7-17,87,79,71,77,73,70,100,89,58,30.22,30.18,30.12,10,7,0,14,2,,0.00,1,Fog,79
2013-7-18,87,78,68,75,72,68,100,90,55,30.15,30.12,30.07,10,8,2,12,1,,0.00,1,,98
2013-7-19,89,80,71,75,73,72,100,95,55,30.14,30.10,30.07,10,9,1,23,2,32,0.01,2,Rain,172
2013-7-20,86,78,69,75,72,70,100,96,70,30.11,30.08,30.04,10,9,0,25,2,34,0.00,2,Rain,200
2013-7-21,89,80,71,77,74,72,100,94,62,30.12,30.07,30.04,10,9,4,23,3,44,0.05,1,Rain,209
2013-7-22,89,81,73,77,75,73,100,96,62,30.14,30.07,30.04,10,8,2,13,4,,0.00,1,Rain,215
2013-7-23,86,80,73,77,74,72,100,96,74,30.05,30.00,29.92,10,10,6,14,7,,0.00,2,Rain,221
2013-7-24,86,78,71,77,74,72,100,94,74,29.94,29.89,29.84,10,9,2,13,6,,0.00,2,Rain,233
2013-7-25,89,80,71,77,74,72,100,91,59,29.98,29.91,29.85,10,9,6,12,3,,0.00,2,,243
2013-7-26,89,80,71,77,74,72,100,89,59,30.03,29.99,29.96,10,8,1,7,1,,0.00,1,Thunderstorm,83
2013-7-27,93,83,73,79,75,70,100,92,56,30.02,29.97,29.89,10,6,0,12,1,,0.00,3,Fog-Rain,165
2013-7-28,89,80,71,75,74,72,100,95,59,30.07,29.99,29.94,10,7,3,10,2,,0.00,1,,192
2013-7-29,93,81,69,75,73,70,100,86,52,30.17,30.10,30.05,10,8,2,8,2,,0.00,1,Thunderstorm,152
2013-7-30,93,83,73,77,75,73,100,93,56,30.19,30.15,30.11,10,8,2,12,1,,0.00,1,Rain,219
2013-7-31,86,78,71,77,73,72,100,97,74,30.15,30.10,30.06,10,6,2,12,1,,0.00,1,Rain-Thunderstorm,129